User: anonymous   Login
Location: Unspecified
(0.0000°N, 0.0000°E)
Time: 04:46:10
(UTC+00:00)
Language:

TDRS 3 - Orbit

View from above orbital plane
View from above orbital plane
View from above satellite
View from above satellite

Ground track
Ground track

The orbit data is extracted from the following two-line orbital elements,

1 19548U 88091B   18292.13174471 -.00000300 +00000-0 +00000-0 0  9997
2 19548 014.4073 003.0690 0034447 309.7098 059.7162 01.00281140097355
Epoch (UTC): 19 October 2018 03:09:42
Eccentricity: 0.0034447
inclination: 14.4073°
perigee height: 35638 km
apogee height: 35929 km
right ascension of ascending node: 3.0690°
argument of perigee: 309.7098°
revolutions per day: 1.00281140
mean anomaly at epoch: 59.7162°
orbit number at epoch: 9735

The dashed part of the orbit path shows where the satellite is in the earth's shadow,  

DLR